Location: ??
(35.1714°N, 128.2806°E)
Time: 15:12:04
(UTC+00:00)

Cosmos 2082 Rocket - Pass Details

Date: 29 October 2020
Orbit: 833 x 854 km, 71.0° (Epoch: 01 December)

Event Time Altitude Azimuth Distance (km) Brightness Sun altitude
Exits shadow 18:57:23 40° 89° (E) 1,200 3.3 -35.0°
Drops below altitude 10° 19:02:02 10° 36° (NE) 2,446 5.0 -34.0°
Sets 19:04:35 0° 30° (NNE) 3,386 5.8 -33.5°
